EW8262 Weather Reports


Display with metric or nautical units.
time (UTC)temp
F
wind
direction
speed
MPH
gust
MPH
rain 1hr
in
rain 24hr
in
rain mn
in
humidity
%
barometer
mb
20190918074015 69 158 5.0 11.0 0.00 0.00 0.00 90 1011.5
20190918073015 69 158 5.0 10.0 0.00 0.00 0.00 89 1011.5
20190918072015 70 180 4.0 10.0 0.00 0.00 0.00 89 1011.6
20190918071015 70 180 6.0 13.0 0.00 0.00 0.00 89 1011.6
20190918070015 70 180 5.0 9.0 0.00 0.00 0.00 88 1011.7
20190918065015 70 158 5.0 10.0 0.00 0.00 0.00 88 1011.9
20190918064014 70 158 5.0 9.0 0.00 0.00 0.00 87 1011.9
20190918063015 70 180 6.0 11.0 0.00 0.00 0.00 87 1012.0
20190918062015 70 180 6.0 11.0 0.00 0.00 0.00 87 1012.0
20190918061015 70 180 5.0 9.0 0.00 0.00 0.00 87 1012.0
20190918060015 70 158 5.0 9.0 0.00 0.00 0.00 86 1012.1
20190918055015 70 180 4.0 8.0 0.00 0.00 0.00 86 1012.2
20190918054017 71 180 5.0 8.0 0.00 0.00 0.00 85 1012.2
20190918053017 71 180 5.0 12.0 0.00 0.00 0.00 85 1012.3
20190918052017 71 180 5.0 8.0 0.00 0.00 0.00 85 1012.4
20190918051016 71 180 5.0 7.0 0.00 0.00 0.00 84 1012.4
20190918050017 72 180 5.0 8.0 0.00 0.00 0.00 84 1012.3
20190918045016 72 180 5.0 11.0 0.00 0.00 0.00 84 1012.4
20190918044017 72 180 5.0 10.0 0.00 0.00 0.00 83 1012.4
20190918043017 72 180 6.0 9.0 0.00 0.00 0.00 83 1012.3
20190918042018 73 158 5.0 15.0 0.00 0.00 0.00 83 1012.3
20190918041017 73 180 6.0 10.0 0.00 0.00 0.00 83 1012.2
20190918040017 73 180 6.0 10.0 0.00 0.00 0.00 84 1012.2
20190918035016 74 180 6.0 13.0 0.00 0.00 0.00 84 1012.1
20190918034016 74 180 5.0 12.0 0.00 0.00 0.00 84 1012.1
20190918033017 75 180 6.0 12.0 0.00 0.00 0.00 84 1012.0
20190918032016 75 180 5.0 11.0 0.00 0.00 0.00 83 1012.1
20190918031017 75 180 6.0 12.0 0.00 0.00 0.00 83 1012.0
20190918030016 75 180 6.0 15.0 0.00 0.00 0.00 83 1012.0
20190918025017 76 180 6.0 14.0 0.00 0.00 0.00 82 1012.0
20190918024016 76 180 6.0 10.0 0.00 0.00 0.00 82 1012.0
20190918023016 76 158 6.0 13.0 0.00 0.00 0.00 82 1011.9
20190918022016 76 158 6.0 13.0 0.00 0.00 0.00 82 1011.9
20190918021016 77 158 5.0 9.0 0.00 0.00 0.00 81 1011.9
20190918020016 77 158 6.0 14.0 0.00 0.00 0.00 81 1011.9
20190918015016 77 158 5.0 9.0 0.00 0.00 0.00 81 1011.8
20190918014016 77 158 5.0 9.0 0.00 0.00 0.00 80 1011.8
20190918013016 77 158 5.0 9.0 0.00 0.00 0.00 80 1011.7
20190918012017 77 158 5.0 9.0 0.00 0.00 0.00 80 1011.7
20190918011016 77 158 4.0 8.0 0.00 0.00 0.00 80 1011.5
20190918010016 78 158 4.0 6.0 0.00 0.00 0.00 79 1011.4
20190918005016 78 158 4.0 8.0 0.00 0.00 0.00 79 1011.4
20190918004016 78 158 4.0 7.0 0.00 0.00 0.00 77 1011.4
20190918003016 79 158 3.0 6.0 0.00 0.00 0.00 76 1011.5
20190918002016 79 158 3.0 6.0 0.00 0.00 0.00 75 1011.4
20190918001016 80 158 4.0 7.0 0.00 0.00 0.00 74 1011.3
20190918000016 81 158 4.0 7.0 0.00 0.00 0.00 73 1011.3
20190917235016 81 158 5.0 8.0 0.00 0.00 0.00 73 1011.2
20190917234016 82 180 6.0 9.0 0.00 0.00 0.00 72 1011.3
20190917233016 82 158 5.0 10.0 0.00 0.00 0.00 72 1011.2
20190917232016 82 158 7.0 12.0 0.00 0.00 0.00 71 1011.2
20190917231016 82 180 6.0 9.0 0.00 0.00 0.00 71 1011.3
20190917230016 83 180 5.0 11.0 0.00 0.00 0.00 71 1011.4
20190917225016 83 180 6.0 11.0 0.00 0.00 0.00 71 1011.5
20190917224016 83 180 5.0 9.0 0.00 0.00 0.00 71 1011.5
20190917223016 83 158 5.0 11.0 0.00 0.00 0.00 71 1011.5
20190917222017 83 158 6.0 10.0 0.00 0.00 0.00 70 1011.5
20190917221016 84 180 5.0 8.0 0.00 0.00 0.00 70 1011.6
20190917220016 84 158 5.0 8.0 0.00 0.00 0.00 70 1011.6
20190917215016 84 158 6.0 12.0 0.00 0.00 0.00 69 1011.7
20190917214016 83 158 5.0 10.0 0.00 0.00 0.00 71 1011.7
20190917213016 83 180 6.0 12.0 0.00 0.00 0.00 69 1011.8
20190917212016 84 158 6.0 11.0 0.00 0.00 0.00 67 1012.0
20190917211016 86 158 7.0 11.0 0.00 0.00 0.00 65 1012.0
20190917210016 86 158 6.0 10.0 0.00 0.00 0.00 66 1012.0
20190917205016 86 180 6.0 14.0 0.00 0.00 0.00 67 1012.0
20190917204016 86 180 6.0 16.0 0.00 0.00 0.00 65 1012.1
20190917203016 86 158 5.0 9.0 0.00 0.00 0.00 67 1012.2
20190917202016 86 158 5.0 10.0 0.00 0.00 0.00 68 1012.3
20190917201016 86 158 5.0 9.0 0.00 0.00 0.00 68 1012.4
20190917200016 86 180 7.0 16.0 0.00 0.00 0.00 66 1012.4
20190917195015 85 158 5.0 12.0 0.00 0.00 0.00 69 1012.5
20190917194016 84 158 5.0 8.0 0.00 0.00 0.00 70 1012.6
20190917193016 84 180 6.0 12.0 0.00 0.00 0.00 71 1012.7
20190917192016 82 180 4.0 7.0 0.00 0.00 0.00 74 1012.7
20190917191015 82 180 4.0 9.0 0.00 0.00 0.00 73 1012.8
20190917190015 81 180 5.0 7.0 0.00 0.00 0.00 75 1012.9
20190917185016 80 158 5.0 8.0 0.00 0.00 0.00 76 1012.9
20190917184015 79 158 4.0 7.0 0.00 0.00 0.00 78 1013.1
20190917183016 79 158 4.0 6.0 0.00 0.00 0.00 77 1013.1
20190917182015 79 158 3.0 7.0 0.00 0.00 0.00 77 1013.2
20190917181016 79 158 4.0 8.0 0.00 0.00 0.00 76 1013.4
20190917180015 79 158 4.0 8.0 0.00 0.00 0.00 74 1013.7
20190917175015 79 158 5.0 9.0 0.00 0.00 0.00 75 1013.7
20190917174016 80 158 4.0 9.0 0.00 0.00 0.00 72 1013.9
20190917173015 80 158 5.0 8.0 0.00 0.00 0.00 72 1014.0
20190917172015 80 158 5.0 8.0 0.00 0.00 0.00 71 1014.1
20190917171015 80 180 5.0 10.0 0.00 0.00 0.00 72 1014.3
20190917170016 80 158 5.0 9.0 0.00 0.00 0.00 72 1014.4
20190917165016 79 158 5.0 13.0 0.00 0.00 0.00 74 1014.4
20190917164015 78 158 6.0 11.0 0.00 0.00 0.00 75 1014.4
20190917163015 77 158 6.0 11.0 0.00 0.00 0.00 76 1014.5
20190917162015 76 158 5.0 9.0 0.00 0.00 0.00 78 1014.5
20190917161015 75 158 6.0 10.0 0.00 0.00 0.00 79 1014.4
20190917160015 74 158 6.0 11.0 0.00 0.00 0.00 81 1014.4
20190917155016 73 158 7.0 12.0 0.00 0.00 0.00 82 1014.5
20190917154015 72 158 5.0 10.0 0.00 0.00 0.00 82 1014.6
20190917153015 72 158 4.0 12.0 0.00 0.00 0.00 83 1014.7
20190917152015 71 180 3.0 6.0 0.00 0.00 0.00 84 1014.7
20190917151016 71 158 4.0 8.0 0.00 0.00 0.00 84 1014.7
20190917150015 70 158 3.0 7.0 0.00 0.00 0.00 84 1014.7
20190917145015 70 158 3.0 8.0 0.00 0.00 0.00 84 1014.7
20190917144015 69 158 4.0 8.0 0.00 0.00 0.00 84 1014.7
20190917143015 69 158 4.0 7.0 0.00 0.00 0.00 84 1014.7
20190917142016 69 158 4.0 7.0 0.00 0.00 0.00 83 1014.7
20190917141015 69 158 3.0 7.0 0.00 0.00 0.00 83 1014.6
20190917140016 69 158 5.0 9.0 0.00 0.00 0.00 83 1014.8
20190917135015 69 158 4.0 8.0 0.00 0.00 0.00 83 1015.0
20190917134015 69 135 5.0 8.0 0.00 0.00 0.00 83 1014.9
20190917133015 69 135 5.0 10.0 0.00 0.00 0.00 83 1015.0
20190917132015 69 158 4.0 7.0 0.00 0.00 0.00 83 1015.2
20190917131015 69 158 4.0 8.0 0.00 0.00 0.00 84 1015.2
20190917130015 69 135 5.0 9.0 0.00 0.00 0.00 84 1015.1
20190917125015 69 158 3.0 5.0 0.00 0.00 0.00 84 1015.3
20190917124015 69 158 4.0 6.0 0.00 0.00 0.00 85 1015.3
20190917123015 69 135 3.0 6.0 0.00 0.00 0.00 85 1015.3
20190917122015 69 180 3.0 5.0 0.00 0.00 0.00 85 1015.3
20190917121015 69 158 3.0 6.0 0.00 0.00 0.00 86 1015.2
20190917120015 69 135 3.0 8.0 0.00 0.00 0.00 86 1015.2
20190917115015 69 158 3.0 6.0 0.00 0.00 0.00 86 1015.1
20190917114016 69 158 2.0 4.0 0.00 0.00 0.00 86 1015.3
20190917113015 69 158 3.0 9.0 0.00 0.00 0.00 86 1015.2
20190917112015 69 158 3.0 7.0 0.00 0.00 0.00 86 1015.0
20190917111015 69 158 2.0 5.0 0.00 0.00 0.00 87 1014.9
20190917110015 69 158 2.0 5.0 0.00 0.00 0.00 87 1015.0
20190917105015 69 158 3.0 9.0 0.00 0.01 0.00 87 1015.0
20190917104015 69 180 4.0 6.0 0.00 0.01 0.00 87 1014.9
20190917103015 69 158 3.0 7.0 0.00 0.01 0.00 87 1015.0
20190917102015 69 158 3.0 4.0 0.00 0.01 0.00 87 1014.9
20190917101015 69 158 3.0 6.0 0.00 0.01 0.00 87 1015.0
20190917100015 69 158 3.0 6.0 0.00 0.01 0.00 87 1014.9
20190917095015 69 158 3.0 7.0 0.00 0.01 0.00 87 1014.9
20190917094015 70 135 2.0 4.0 0.00 0.01 0.00 87 1014.8
20190917093015 70 158 2.0 7.0 0.00 0.01 0.00 87 1015.0
20190917092015 70 158 2.0 3.0 0.00 0.01 0.00 87 1015.0
20190917091015 70 158 4.0 7.0 0.00 0.01 0.00 87 1015.1
20190917090015 70 158 3.0 5.0 0.00 0.01 0.00 87 1015.1
20190917085015 70 158 2.0 4.0 0.00 0.01 0.00 87 1015.0
20190917084015 70 158 2.0 5.0 0.00 0.01 0.00 87 1015.1
20190917083015 70 180 2.0 4.0 0.00 0.01 0.00 87 1015.1
20190917082015 70 180 2.0 4.0 0.00 0.01 0.00 87 1015.1
20190917081015 70 158 2.0 4.0 0.00 0.01 0.00 87 1014.9
20190917080015 70 180 2.0 4.0 0.00 0.01 0.00 86 1014.8
20190917075015 71 158 2.0 4.0 0.00 0.01 0.00 86 1014.8